Location: Bismarck
(46.7731°N, 100.8200°W)
Time: 10:06:24
(UTC-05:00)

Daily predictions for brighter satellites

Satellite Brightness Start Highest point End
(mag) Time Altitude Azimuth Time Altitude Azimuth Time Altitude Azimuth
BREEZE-M DEB (TANK) 3.8 21:05:54 10° W 21:09:54 86° S 21:25:10 10° E
Envisat 3.4 21:08:20 10° SE 21:13:11 48° ENE 21:18:05 10° N
Cosmos 1302 Rocket 4.0 21:08:21 10° S 21:13:28 63° ESE 21:18:36 10° NNE
BREEZE-M DEB (TANK) 3.1 21:17:33 10° WSW 21:20:28 69° SSE 21:27:39 10° E
Cosmos 2360 Rocket 3.8 21:18:44 10° SE 21:21:31 14° E 21:24:18 10° ENE
Cosmos 1980 Rocket 2.3 21:15:57 10° SSW 21:21:38 89° ESE 21:27:24 10° NNE
Cosmos 1825 2.6 21:18:56 10° N 21:22:35 43° ENE 21:26:13 10° SSE
Cosmos 2026 Rocket 4.1 21:19:37 10° N 21:25:51 61° ENE 21:31:55 10° SSE
CZ-2D R/B 4.0 21:22:52 10° S 21:26:42 58° W 21:30:34 10° NNW
USA 234 3.4 21:23:30 10° SE 21:30:05 82° SW 21:36:41 10° NW
ATLAS CENTAUR R/B 4.3 21:31:38 10° WSW 21:33:06 13° SW 21:35:05 10° S
Cosmos 1862 3.8 21:32:25 10° N 21:36:17 44° ENE 21:40:09 10° SSE
SL-16 R/B 2.5 21:32:52 10° S 21:38:15 46° ESE 21:43:38 10° NE
USA 186 2.7 21:36:27 10° S 21:39:04 42° W 21:41:54 10° NNW
Helios 1B rocket 2.4 21:35:11 10° NNE 21:39:16 65° ESE 21:43:20 10° S
Lacrosse 4 Rocket 1.5 21:36:32 10° NNW 21:40:51 88° ENE 21:45:08 11° SSE
ATLAS 5 CENTAUR R/B 2.9 21:36:36 10° NNW 21:42:15 49° NE 21:47:45 13° ESE
ERBS 3.4 21:39:40 10° WNW 21:42:55 39° SW 21:46:04 11° SSE
Cosmos 1707 Rocket 4.0 21:38:33 10° SSW 21:42:58 67° W 21:47:24 10° N
Cosmos 1733 Rocket 3.1 21:42:20 10° N 21:46:46 62° E 21:51:11 10° SSE
ERS-1 Rocket 3.3 21:42:09 11° SE 21:46:52 48° ENE 21:51:42 10° N
SAR-Lupe-4 4.0 21:43:50 10° S 21:47:23 64° WSW 21:50:59 10° NNW
Cosmos 1634 Rocket 4.1 21:42:11 10° S 21:48:29 87° W 21:54:53 10° N
Milstar 3 4.5 21:44:05 10° SW 21:48:55 17° S 21:53:09 10° SSE
Intercosmos 25 Rocket 3.1 21:45:52 10° S 21:49:02 64° E 21:53:09 10° NNE
Cosmos 1939 Rocket 2.8 21:45:05 10° SSE 21:49:09 84° ENE 21:53:11 10° NNW
Cosmos 1655 Rocket 4.0 21:46:35 10° N 21:53:02 78° E 21:59:24 10° SSE
Cosmos 397 4.5 21:49:26 10° NW 21:53:54 87° WSW 21:57:10 15° SSE
Cosmos 2278 Rocket 4.4 21:52:56 10° N 21:55:23 13° NE 21:57:49 10° ENE
Cosmos 1862 Rocket 3.8 21:51:45 10° S 21:56:04 52° E 22:00:27 10° NNE
ARGOS 4.0 21:52:59 15° ESE 21:56:45 34° ENE 22:01:34 10° N
Cosmos 1408 2.9 21:53:58 10° NNW 21:57:40 68° W 22:01:18 10° S
SeaSat 1 3.1 21:57:02 16° ESE 22:00:34 42° NE 22:05:14 10° NNW
CENTAUR R/B 3.9 21:56:10 10° WSW 22:02:10 44° NW 22:09:02 10° NE
Cosmos 1844 Rocket 4.1 22:00:58 10° N 22:05:31 25° NE 22:09:04 14° E
Abrixas rocket 2.1 22:02:39 10° WSW 22:05:57 87° SSE 22:08:38 14° ENE
Cosmos 1992 Rocket 4.0 22:00:53 10° S 22:06:01 60° ESE 22:11:11 10° NNE
Okean 1-7 4.5 22:07:56 19° ESE 22:08:52 20° E 22:12:04 10° NE
USA 229 DEB 4.5 22:05:51 10° SSE 22:11:26 28° ESE 22:17:04 10° ENE
USA 229 4.5 22:05:59 10° SSE 22:11:32 27° ESE 22:17:09 10° ENE
Terra 3.7 22:10:04 13° E 22:12:06 16° ENE 22:15:02 10° NNE
Atlas Centaur 2 4.2 22:07:15 10° SSW 22:12:12 19° SSE 22:14:12 17° SE
Cosmos 2266 Rocket 4.3 22:07:46 10° N 22:13:51 51° ENE 22:18:12 20° SE
Cosmos 2242 Rocket 4.1 22:10:24 10° SSW 22:14:53 64° W 22:19:21 10° N
Cosmos 1703 Rocket 4.3 22:14:11 23° SE 22:16:07 33° E 22:20:06 10° NNE
YAOGAN 11 4.3 22:13:55 22° SE 22:16:32 55° ENE 22:20:48 10° N
Cosmos 2221 Rocket 4.5 22:21:33 26° ESE 22:22:42 30° E 22:26:33 10° NNE
CZ-4C R/B 4.1 22:20:05 10° NNW 22:25:52 30° NNE 22:32:09 10° E
MOS 1-B Rocket 4.1 22:22:53 22° SE 22:26:39 56° ENE 22:32:09 10° N
Cosmos 2219 Rocket 4.1 22:28:37 11° E 22:28:37 11° E 22:29:27 10° ENE
Cosmos 2279 Rocket 4.2 22:23:28 10° SSW 22:29:41 73° W 22:35:57 10° N
Cosmos 1867 3.6 22:24:18 10° NW 22:29:48 77° NE 22:32:45 28° SE
MetOp-A 4.1 22:28:38 21° SSE 22:32:20 86° ENE 22:37:44 10° NNW
YAOGAN 6 3.5 22:31:23 16° S 22:34:02 47° W 22:37:33 10° NNW
Meteor 1-14 Rocket 4.2 22:29:26 10° N 22:35:04 69° ENE 22:38:21 26° SSE
BREEZE-M DEB (TANK) 4.5 22:30:45 10° SW 22:35:14 65° SSE 22:51:11 10° ENE
H-2A R/B 2.5 22:33:27 28° ESE 22:35:33 43° ENE 22:40:13 10° N
Cosmos 489 Rocket 4.5 22:29:21 10° NNW 22:35:45 87° WSW 22:39:55 23° SSE
USA 267 4.3 22:30:28 10° NE 22:36:40 47° NNW 22:42:52 10° W
Cosmos 968 Rocket 3.5 22:38:59 10° NNW 22:44:13 84° WSW 22:46:52 30° SSE
SPOT 5 2.8 22:43:25 30° SSE 22:45:52 87° E 22:50:33 10° NNW
Cosmos 2263 Rocket 2.9 22:41:05 10° NW 22:46:25 47° WSW 22:50:08 19° S
Meteor 1-25 Rocket 4.2 22:45:07 10° N 22:50:43 68° ENE 22:53:06 35° SSE
Sich 1 Rocket 3.9 22:47:13 10° NNW 22:51:38 64° W 22:54:01 26° S
COSMOS 2428 3.3 22:52:07 33° ESE 22:52:47 34° ESE 22:57:53 10° NE
Meteor 2-10 Rocket 3.8 22:47:02 10° SSW 22:52:51 81° WNW 22:58:40 10° N
Cosmos 2322 Rocket 3.1 22:49:03 10° SW 22:54:28 49° WNW 22:59:57 10° NNE
H-2A R/B 2.4 23:01:06 42° E 23:01:42 45° ENE 23:05:51 10° N
Cosmos 1908 Rocket 4.4 22:59:41 10° NNW 23:03:51 46° W 23:06:00 25° SSW
Cosmos 2360 Rocket 2.1 22:58:58 10° SSW 23:04:38 87° ESE 23:10:21 10° NNE
Cosmos 1844 4.1 23:02:53 10° NNW 23:08:28 51° ENE 23:10:13 37° ESE
Meteor 1-20 Rocket 4.1 23:04:39 10° N 23:10:14 86° E 23:12:18 41° SSE
Cosmos 2322 3.6 23:07:11 11° SSW 23:12:41 87° ESE 23:18:26 10° NNE
Cosmos 1606 3.7 23:14:01 34° ENE 23:14:01 34° ENE 23:16:41 10° NNE
Cosmos 1782 Rocket 4.0 23:13:39 10° NNW 23:17:56 56° W 23:19:11 40° SSW
IGS 5A 3.7 23:18:47 52° ENE 23:18:51 52° ENE 23:22:54 10° N
Lacrosse 4 Rocket 4.2 23:17:42 10° W 23:18:54 11° WSW 23:20:07 10° WSW
Okean 2 Rocket 3.2 23:16:55 10° NNW 23:21:27 73° W 23:22:23 54° SSW
Cosmos 1633 3.5 23:18:29 10° N 23:21:17 38° NE 23:21:17 38° NE
SL-16 R/B 3.9 23:17:24 10° WSW 23:22:30 33° NW 23:27:39 10° NNE
SPOT 1/Viking Rocket 3.8 23:21:00 38° SSW 23:22:54 63° WSW 23:28:07 10° NNW
Meteor 2-6 Rocket 4.4 23:22:10 47° SE 23:23:30 57° E 23:29:20 10° NNE
ATLAS 5 CENTAUR R/B 3.2 23:21:24 10° NW 23:27:01 42° WSW 23:29:18 31° SSW
Cosmos 1782 2.8 23:29:11 75° NE 23:29:11 75° NE 23:32:57 10° N
Cosmos 2333 Rocket 3.1 23:34:09 32° E 23:34:09 32° E 23:38:20 10° NE
Landsat 7 3.9 23:33:20 58° SSW 23:34:09 72° WSW 23:38:56 10° NNW
Cosmos 2333 4.2 23:33:39 55° SSE 23:34:35 64° ESE 23:40:19 10° NNE
ARGOS 4.2 23:34:29 25° SW 23:36:57 37° W 23:41:56 10° NNW
SeaSat 1 3.6 23:36:49 28° SW 23:38:11 32° WSW 23:42:37 10° NW
Cosmos 1898 Rocket 4.3 23:34:39 10° N 23:39:26 36° ENE 23:40:05 35° ENE
Cosmos 2237 Rocket 3.5 23:41:32 25° ENE 23:41:32 25° ENE 23:44:53 10° NE
Cosmos 2278 Rocket 2.6 23:35:22 10° NNW 23:40:55 51° ENE 23:41:58 45° E
Abrixas rocket 4.1 23:39:37 10° W 23:41:21 28° WNW 23:41:21 28° WNW
Okean 1-7 4.1 23:44:47 33° WSW 23:46:09 42° WNW 23:50:23 10° N
deb Chang Zheng 4 3.6 23:44:01 10° NNE 23:48:09 78° NNE 23:48:09 78° NNE
Cosmos 1745 Rocket 4.0 23:42:39 10° N 23:48:58 68° E 23:50:11 56° SE
Terra 1.8 23:48:57 69° SW 23:49:17 72° WSW 23:54:04 10° NNW
Cosmos 1844 Rocket 2.7 23:44:21 10° NNW 23:49:54 65° WSW 23:50:44 57° SSW
Cosmos 1346 Rocket 4.0 23:51:31 34° NE 23:51:31 34° NE 23:53:58 10° NNE
Cosmos 1417 Rocket 4.4 23:48:34 53° S 23:50:12 84° E 23:56:35 10° N
Spot 4 3.8 23:52:17 70° ENE 23:52:17 70° ENE 23:57:01 10° N
Cosmos 2151 Rocket 3.8 23:50:29 10° NNW 23:54:48 66° W 23:54:48 66° W
